カタログに戻る

DMSP 5D-2 F11 DEB

運用中SSO
NORAD 29074·DEBRIS·🇺🇸 United States

打ち上げ Nov 28, 1991 から Vandenberg Space Force Base

Loading…

次のパス (今後24時間)

TLE

最新Source: Space-Track

元期: Sep 13, 2026, 17:21 UTC

1 29074U 91082BV  26256.72316286  .00005686  00000-0  11926-2 0  9994
2 29074  98.5730 351.5024 0006214 230.6211 129.4438 14.60068399143515

AllMySatでDMSP 5D-2 F11 DEBをリアルタイム追跡

Download on the App Store